STARLINK-5508, 55639

Orbit data source: Space-Track

STARLINK-5508, 55639 is a payload satellite owned by SpaceX/Seattle (US) in LEO that was launched on Fri, 17 Feb 2023 UTC via an FALCON 9 launch vehicle from the Air Force Western Test Range (AFWTR). Payload-class satellites include a variety of spacecraft equipped with specific instruments for various scientific and technological missions. These include communications satellites like Starlink; space stations such as the ISS; scientific satellites like the Hubble; Earth observation satellites from companies like Planet Labs, Umbra, and HawkEye 360; GPS; miniature CubeSats for education and research; and military/defense satellites.

Loading next visibility...
Identifier
55639, 2023-021M
Orbit
LEO
Country
Flag of USUS
Related business
Manufacturer
SpaceX/Seattle
Mission
Operational Commercial Communications
Bus & Motor
STARLINK, Unknown motor
Mass
305 kg wet, ~290 kg dry
Launch date (UTC)
2023-02-17 (3 years ago)
Launch vehicle
FALCON 9
Launch site
Air Force Western Test Range (AFWTR)
Object type
Payload
Rocket body
Debris
Shape & HBR
Box + 1 Pan, 10.1 m
Radar Cross Section
13.562 m², Large (>1 m²)

Expand to show TLE details & history
Last TLE update: 2 days ago

TLE from 2 days ago
0 STARLINK-5508
1 55639U 23021M   26171.44601174 -.00000572  00000-0 -40123-4 0  9990
2 55639  69.9993 285.3543 0003402 262.9595  97.1177 14.98336294184185
Epoch: 2026-06-20T10:42Z
TLE epoch observation values (Epoch: 2026-06-20T10:42:15.414Z)
Latitude
-0.00004°
Longitude
-143.87046°
Altitude
574.754 km
Speed
7.574 km/s
True Right ascension
19h 01m 25s
True Declination
0° 00' 00"
Sunlit
Object was in full shadow at epoch
Visualization orbit readout
Latitude
Unknown
Longitude
Unknown
Altitude
Unknown
Speed
Unknown
Apparent Right ascension
Unknown
Apparent Declination
Unknown
Sunlit
N/A
Visualization observer readout
Local Sidereal Time
21:44:32
Azimuth
Unknown
Elevation
Unknown
Doppler factor
Unknown
Orbital elements
Apogee altitude
572.348 km
Perigee altitude
567.621 km
Semi-major axis
6,948.122 km
Eccentricity
0.00034
Inclination
69.9993°
RAAN
285.3543°
Arg. of periapsis
262.9595°
True anomaly
97.15638°
Mean anomaly
97.1177°
Eccentric anomaly
97.13704°
Mean motion
3.7475 °/min
Orbital period
96.06 mins
BSTAR
-0.000040123
Loading maneuver chart data...
Computing Atmospheric mass density...

Documentation

Showing up to 5 results
|